Torna al catalogo

QIANFAN-161

AttivoComunicazioniPO
NORAD 69120·PAYLOAD·🇨🇳 China

Lanciato May 17, 2026 da Wenchang Space Launch Site

Loading…

Prossimi Passaggi (prossime 24 ore)

TLE

AggiornatoSource: Space-Track

Epoca: Sep 14, 2026, 10:42 UTC

1 69120U 26108S   26257.44601178 -.01984377  00000-0 -34398+1 0  9996
2 69120  89.0198  13.0345 0004641 168.6165 191.5091 13.47836241 16551

Traccia QIANFAN-161 in tempo reale con AllMySat

Download on the App Store